Year,Month,Day,Hour,Minute,Value (Times are PST for windspeed in km/hr)
2010,05,03,00,00,8.00
2010,05,03,00,01,7.40
2010,05,03,00,02,10.30
2010,05,03,00,03,14.70
2010,05,03,00,04,7.60
2010,05,03,00,05,7.40
2010,05,03,00,06,9.30
2010,05,03,00,07,4.00
2010,05,03,00,08,12.30
2010,05,03,00,09,7.80
2010,05,03,00,10,4.80
2010,05,03,00,11,10.30
2010,05,03,00,12,10.70
2010,05,03,00,16,5.40
2010,05,03,00,17,8.70
2010,05,03,00,18,12.00
2010,05,03,00,19,10.30
2010,05,03,00,20,10.30
2010,05,03,00,21,14.10
2010,05,03,00,22,8.00
2010,05,03,00,23,13.70
2010,05,03,00,24,10.80
2010,05,03,00,25,3.60
2010,05,03,00,26,10.40
2010,05,03,00,27,16.50
2010,05,03,00,28,19.50
2010,05,03,00,29,14.70
2010,05,03,00,30,11.70
2010,05,03,00,31,9.00
2010,05,03,00,32,15.10
2010,05,03,00,33,13.30
2010,05,03,00,34,7.90
2010,05,03,00,35,16.80
2010,05,03,00,36,6.70
2010,05,03,00,37,15.50
2010,05,03,00,38,17.40
2010,05,03,00,39,15.30
2010,05,03,00,40,20.90
2010,05,03,00,41,16.40
2010,05,03,00,42,21.10
2010,05,03,00,43,14.40
2010,05,03,00,44,20.00
2010,05,03,00,45,19.80
2010,05,03,00,46,24.60
2010,05,03,00,47,15.50
2010,05,03,00,48,24.30
2010,05,03,00,49,12.60
2010,05,03,00,50,18.00
2010,05,03,00,51,19.60
2010,05,03,00,52,14.30
2010,05,03,00,53,23.50
2010,05,03,00,54,18.80
2010,05,03,00,55,19.60
2010,05,03,00,56,18.70
2010,05,03,00,57,17.40
2010,05,03,00,58,17.80
2010,05,03,00,59,20.70
2010,05,03,01,00,24.10
2010,05,03,01,01,16.40
2010,05,03,01,02,18.80
2010,05,03,01,03,23.10
2010,05,03,01,04,19.30
2010,05,03,01,05,20.70
2010,05,03,01,06,19.40
2010,05,03,01,07,17.60
2010,05,03,01,08,21.20
2010,05,03,01,09,14.50
2010,05,03,01,10,22.30
2010,05,03,01,11,13.90
2010,05,03,01,12,20.40
2010,05,03,01,13,25.10
2010,05,03,01,14,17.30
2010,05,03,01,15,19.50
2010,05,03,01,16,18.00
2010,05,03,01,17,19.30
2010,05,03,01,18,23.60
2010,05,03,01,19,5.80
2010,05,03,01,20,20.80
2010,05,03,01,21,14.60
2010,05,03,01,22,7.30
2010,05,03,01,23,18.90
2010,05,03,01,24,6.90
2010,05,03,01,25,11.30
2010,05,03,01,26,18.70
2010,05,03,01,27,13.00
2010,05,03,01,28,13.50
2010,05,03,01,29,19.90
2010,05,03,01,30,6.80
2010,05,03,01,31,14.70
2010,05,03,01,32,16.00
2010,05,03,01,33,11.20
2010,05,03,01,34,9.50
2010,05,03,01,35,14.20
2010,05,03,01,36,18.80
2010,05,03,01,37,8.20
2010,05,03,01,38,22.40
2010,05,03,01,39,20.10
2010,05,03,01,40,21.20
2010,05,03,01,41,24.90
2010,05,03,01,42,10.90
2010,05,03,01,43,24.10
2010,05,03,01,44,26.30
2010,05,03,01,45,14.20
2010,05,03,01,46,16.50
2010,05,03,01,47,14.80
2010,05,03,01,48,19.50
2010,05,03,01,49,20.60
2010,05,03,01,50,12.00
2010,05,03,01,51,7.70
2010,05,03,01,52,5.20
2010,05,03,01,53,14.60
2010,05,03,01,54,35.70
2010,05,03,01,55,11.30
2010,05,03,01,56,15.30
2010,05,03,01,57,19.80
2010,05,03,01,58,16.60
2010,05,03,01,59,20.70
2010,05,03,02,00,15.30
2010,05,03,02,01,15.30
2010,05,03,02,02,14.10
2010,05,03,02,03,15.60
2010,05,03,02,04,10.60
2010,05,03,02,05,6.90
2010,05,03,02,06,10.40
2010,05,03,02,07,19.00
2010,05,03,02,08,23.70
2010,05,03,02,09,18.60
2010,05,03,02,10,12.10
2010,05,03,02,11,18.50
2010,05,03,02,12,10.30
2010,05,03,02,13,10.30
2010,05,03,02,14,20.00
2010,05,03,02,15,18.40
2010,05,03,02,16,20.70
2010,05,03,02,17,14.30
2010,05,03,02,18,9.20
2010,05,03,02,19,19.50
2010,05,03,02,20,16.30
2010,05,03,02,21,9.40
2010,05,03,02,22,11.10
2010,05,03,02,23,9.90
2010,05,03,02,24,15.10
2010,05,03,02,25,9.80
2010,05,03,02,26,14.50
2010,05,03,02,27,9.10
2010,05,03,02,28,10.60
2010,05,03,02,29,11.60
2010,05,03,02,30,13.40
2010,05,03,02,31,10.80
2010,05,03,02,32,19.40
2010,05,03,02,33,9.30
2010,05,03,02,34,9.40
2010,05,03,02,35,8.30
2010,05,03,02,36,12.90
2010,05,03,02,37,7.70
2010,05,03,02,38,10.80
2010,05,03,02,39,7.20
2010,05,03,02,40,10.20
2010,05,03,02,41,8.50
2010,05,03,02,42,4.80
2010,05,03,02,43,5.20
2010,05,03,02,44,9.90
2010,05,03,02,45,4.60
2010,05,03,02,46,9.90
2010,05,03,02,47,10.30
2010,05,03,02,48,14.10
2010,05,03,02,49,7.00
2010,05,03,02,50,4.50
2010,05,03,02,51,5.50
2010,05,03,02,52,1.80
2010,05,03,02,53,1.90
2010,05,03,02,54,5.90
2010,05,03,02,55,5.00
2010,05,03,02,56,9.80
2010,05,03,02,57,7.20
2010,05,03,02,58,11.30
2010,05,03,02,59,3.20
2010,05,03,03,00,10.30
2010,05,03,03,01,14.70
2010,05,03,03,02,20.40
2010,05,03,03,03,9.00
2010,05,03,03,04,12.80
2010,05,03,03,05,9.60
2010,05,03,03,06,10.50
2010,05,03,03,07,18.00
2010,05,03,03,08,12.40
2010,05,03,03,09,14.10
2010,05,03,03,10,6.80
2010,05,03,03,11,14.80
2010,05,03,03,12,11.10
2010,05,03,03,13,12.20
2010,05,03,03,14,10.80
2010,05,03,03,15,16.40
2010,05,03,03,16,7.10
2010,05,03,03,17,4.30
2010,05,03,03,18,15.10
2010,05,03,03,19,8.60
2010,05,03,03,20,7.70
2010,05,03,03,21,4.70
2010,05,03,03,22,10.80
2010,05,03,03,23,8.90
2010,05,03,03,24,4.40
2010,05,03,03,25,0.50
2010,05,03,03,26,9.10
2010,05,03,03,27,12.30
2010,05,03,03,28,4.30
2010,05,03,03,29,8.60
2010,05,03,03,30,11.70
2010,05,03,03,31,6.80
2010,05,03,03,32,7.30
2010,05,03,03,33,7.20
2010,05,03,03,34,4.70
2010,05,03,03,35,10.10
2010,05,03,03,36,5.90
2010,05,03,03,37,13.30
2010,05,03,03,38,7.90
2010,05,03,03,39,7.50
2010,05,03,03,40,3.40
2010,05,03,03,41,2.30
2010,05,03,03,42,4.70
2010,05,03,03,43,3.30
2010,05,03,03,44,3.90
2010,05,03,03,45,6.10
2010,05,03,03,46,5.60
2010,05,03,03,47,3.80
2010,05,03,03,48,7.30
2010,05,03,03,49,4.40
2010,05,03,03,50,6.40
2010,05,03,03,51,4.30
2010,05,03,03,52,1.70
2010,05,03,03,53,4.70
2010,05,03,03,54,5.70
2010,05,03,03,55,4.80
2010,05,03,03,56,3.60
2010,05,03,03,57,0.70
2010,05,03,03,58,0.00
2010,05,03,03,59,0.00
2010,05,03,04,00,0.00
2010,05,03,04,01,0.90
2010,05,03,04,02,1.10
2010,05,03,04,03,3.00
2010,05,03,04,04,3.60
2010,05,03,04,05,6.80
2010,05,03,04,06,6.00
2010,05,03,04,07,0.10
2010,05,03,04,08,3.90
2010,05,03,04,09,1.50
2010,05,03,04,10,1.60
2010,05,03,04,11,3.10
2010,05,03,04,12,1.30
2010,05,03,04,13,0.60
2010,05,03,04,14,0.10
2010,05,03,04,15,0.90
2010,05,03,04,16,0.90
2010,05,03,04,17,4.10
2010,05,03,04,18,1.00
2010,05,03,04,19,1.10
2010,05,03,04,20,6.00
2010,05,03,04,21,5.50
2010,05,03,04,22,3.90
2010,05,03,04,23,4.60
2010,05,03,04,24,7.80
2010,05,03,04,25,7.40
2010,05,03,04,26,4.80
2010,05,03,04,27,10.10
2010,05,03,04,28,4.90
2010,05,03,04,29,12.50
2010,05,03,04,30,11.30
2010,05,03,04,31,15.40
2010,05,03,04,32,8.40
2010,05,03,04,33,12.60
2010,05,03,04,34,7.10
2010,05,03,04,35,9.80
2010,05,03,04,36,6.60
2010,05,03,04,37,3.30
2010,05,03,04,38,10.30
2010,05,03,04,39,1.90
2010,05,03,04,40,3.00
2010,05,03,04,41,6.40
2010,05,03,04,42,13.10
2010,05,03,04,43,6.30
2010,05,03,04,44,3.30
2010,05,03,04,45,3.00
2010,05,03,04,46,2.30
2010,05,03,04,47,9.70
2010,05,03,04,48,6.70
2010,05,03,04,49,20.80
2010,05,03,04,50,9.20
2010,05,03,04,51,15.40
2010,05,03,04,52,18.20
2010,05,03,04,53,12.50
2010,05,03,04,54,6.60
2010,05,03,04,55,5.50
2010,05,03,04,56,16.30
2010,05,03,04,57,23.40
2010,05,03,04,58,16.90
2010,05,03,04,59,5.20
2010,05,03,05,00,3.40
2010,05,03,05,01,6.90
2010,05,03,05,02,9.10
2010,05,03,05,03,7.60
2010,05,03,05,04,3.40
2010,05,03,05,05,9.10
2010,05,03,05,06,25.80
2010,05,03,05,07,18.70
2010,05,03,05,08,9.10
2010,05,03,05,09,12.10
2010,05,03,05,10,7.40
2010,05,03,05,11,11.40
2010,05,03,05,12,3.00
2010,05,03,05,13,6.80
2010,05,03,05,14,4.80
2010,05,03,05,15,12.40
2010,05,03,05,16,9.00
2010,05,03,05,17,13.10
2010,05,03,05,18,10.30
2010,05,03,05,19,11.50
2010,05,03,05,20,9.90
2010,05,03,05,21,7.30
2010,05,03,05,22,14.10
2010,05,03,05,23,7.80
2010,05,03,05,24,18.40
2010,05,03,05,25,14.20
2010,05,03,05,26,18.90
2010,05,03,05,27,7.50
2010,05,03,05,28,5.00
2010,05,03,05,29,4.00
2010,05,03,05,30,11.10
2010,05,03,05,31,7.50
2010,05,03,05,32,5.10
2010,05,03,05,33,18.10
2010,05,03,05,34,15.00
2010,05,03,05,35,6.90
2010,05,03,05,36,13.60
2010,05,03,05,37,10.70
2010,05,03,05,38,11.40
2010,05,03,05,39,12.80
2010,05,03,05,40,11.10
2010,05,03,05,41,18.00
2010,05,03,05,42,18.10
2010,05,03,05,43,18.10
2010,05,03,05,44,4.40
2010,05,03,05,45,19.80
2010,05,03,05,46,11.70
2010,05,03,05,47,11.40
2010,05,03,05,48,8.90
2010,05,03,05,49,14.90
2010,05,03,05,50,7.50
2010,05,03,05,51,15.80
2010,05,03,05,52,14.70
2010,05,03,05,58,15.60
2010,05,03,05,59,16.90
2010,05,03,06,00,14.80
2010,05,03,06,01,15.60
2010,05,03,06,02,18.70
2010,05,03,06,03,29.40
2010,05,03,06,04,19.30
2010,05,03,06,05,16.50
2010,05,03,06,06,24.00
2010,05,03,06,07,25.90
2010,05,03,06,08,16.60
2010,05,03,06,09,16.20
2010,05,03,06,10,22.80
2010,05,03,06,11,16.00
2010,05,03,06,12,12.60
2010,05,03,06,13,20.20
2010,05,03,06,14,16.20
2010,05,03,06,15,32.40
2010,05,03,06,16,20.20
2010,05,03,06,17,16.30
2010,05,03,06,18,25.40
2010,05,03,06,19,25.70
2010,05,03,06,20,22.40
2010,05,03,06,21,10.40
2010,05,03,06,22,18.70
2010,05,03,06,23,11.10
2010,05,03,06,24,9.90
2010,05,03,06,25,15.00
2010,05,03,06,26,9.40
2010,05,03,06,27,17.50
2010,05,03,06,28,10.20
2010,05,03,06,29,8.60
2010,05,03,06,30,3.10
2010,05,03,06,31,13.40
2010,05,03,06,32,10.90
2010,05,03,06,33,10.20
2010,05,03,06,34,14.00
2010,05,03,06,35,5.70
2010,05,03,06,36,14.00
2010,05,03,06,37,9.90
2010,05,03,06,38,8.60
2010,05,03,06,39,7.90
2010,05,03,06,40,5.80
2010,05,03,06,41,1.80
2010,05,03,06,42,3.70
2010,05,03,06,43,5.10
2010,05,03,06,44,6.90
2010,05,03,06,45,3.60
2010,05,03,06,46,1.90
2010,05,03,06,47,0.70
2010,05,03,06,48,2.10
2010,05,03,06,49,3.20
2010,05,03,06,50,4.00
2010,05,03,06,51,4.10
2010,05,03,06,52,3.00
2010,05,03,06,53,2.70
2010,05,03,06,54,6.20
2010,05,03,06,55,4.90
2010,05,03,06,56,4.20
2010,05,03,06,57,2.10
2010,05,03,06,58,9.30
2010,05,03,06,59,4.20
2010,05,03,07,00,8.50
2010,05,03,07,01,10.20
2010,05,03,07,02,8.00
2010,05,03,07,03,7.50
2010,05,03,07,04,11.10
2010,05,03,07,05,11.80
2010,05,03,07,06,6.90
2010,05,03,07,07,15.80
2010,05,03,07,08,10.30
2010,05,03,07,09,4.20
2010,05,03,07,10,6.00
2010,05,03,07,11,7.70
2010,05,03,07,12,4.70
2010,05,03,07,13,6.90
2010,05,03,07,14,10.30
2010,05,03,07,15,9.40
2010,05,03,07,16,6.20
2010,05,03,07,17,7.10
2010,05,03,07,18,8.20
2010,05,03,07,19,13.50
2010,05,03,07,20,15.70
2010,05,03,07,21,11.90
2010,05,03,07,22,13.40
2010,05,03,07,23,3.80
2010,05,03,07,24,5.90
2010,05,03,07,25,1.80
2010,05,03,07,26,3.40
2010,05,03,07,27,3.30
2010,05,03,07,28,11.30
2010,05,03,07,29,10.70
2010,05,03,07,30,7.70
2010,05,03,07,31,3.70
2010,05,03,07,32,6.50
2010,05,03,07,33,3.70
2010,05,03,07,34,8.60
2010,05,03,07,35,8.40
2010,05,03,07,36,10.50
2010,05,03,07,37,9.10
2010,05,03,07,38,8.30
2010,05,03,07,39,12.40
2010,05,03,07,40,3.90
2010,05,03,07,41,7.60
2010,05,03,07,42,11.40
2010,05,03,07,43,10.90
2010,05,03,07,44,16.30
2010,05,03,07,45,12.10
2010,05,03,07,46,12.50
2010,05,03,07,47,8.30
2010,05,03,07,48,10.30
2010,05,03,07,49,13.90
2010,05,03,07,50,13.90
2010,05,03,07,51,7.70
2010,05,03,07,52,5.90
2010,05,03,07,53,18.70
2010,05,03,07,54,17.00
2010,05,03,07,55,16.40
2010,05,03,07,56,10.30
2010,05,03,07,57,14.60
2010,05,03,07,58,14.70
2010,05,03,07,59,2.90
2010,05,03,08,00,8.50
2010,05,03,08,01,9.30
2010,05,03,08,02,6.50
2010,05,03,08,03,8.40
2010,05,03,08,04,16.10
2010,05,03,08,05,9.20
2010,05,03,08,06,7.30
2010,05,03,08,07,7.00
2010,05,03,08,08,12.80
2010,05,03,08,09,8.70
2010,05,03,08,10,9.50
2010,05,03,08,11,6.70
2010,05,03,08,12,6.30
2010,05,03,08,13,4.30
2010,05,03,08,14,8.90
2010,05,03,08,15,8.70
2010,05,03,08,16,14.10
2010,05,03,08,17,11.20
2010,05,03,08,18,15.40
2010,05,03,08,19,12.00
2010,05,03,08,20,10.80
2010,05,03,08,21,15.80
2010,05,03,08,22,13.00
2010,05,03,08,23,11.70
2010,05,03,08,24,14.50
2010,05,03,08,25,5.60
2010,05,03,08,26,12.20
2010,05,03,08,27,13.60
2010,05,03,08,28,12.10
2010,05,03,08,29,17.00
2010,05,03,08,30,8.80
2010,05,03,08,31,6.80
2010,05,03,08,32,11.30
2010,05,03,08,33,12.80
2010,05,03,08,34,4.70
2010,05,03,08,35,5.50
2010,05,03,08,36,19.50
2010,05,03,08,37,24.80
2010,05,03,08,38,11.60
2010,05,03,08,39,11.60
2010,05,03,08,40,16.80
2010,05,03,08,41,12.20
2010,05,03,08,42,5.10
2010,05,03,08,43,16.20
2010,05,03,08,44,12.00
2010,05,03,08,45,18.70
2010,05,03,08,46,10.00
2010,05,03,08,47,7.90
2010,05,03,08,48,7.80
2010,05,03,08,49,17.30
2010,05,03,08,50,6.40
2010,05,03,08,51,4.30
2010,05,03,08,52,3.60
2010,05,03,08,53,6.70
2010,05,03,08,54,12.60
2010,05,03,08,55,15.70
2010,05,03,08,56,7.30
2010,05,03,08,57,8.00
2010,05,03,08,58,9.80
2010,05,03,08,59,8.00
2010,05,03,09,00,7.20
2010,05,03,09,01,13.00
2010,05,03,09,02,8.70
2010,05,03,09,03,16.10
2010,05,03,09,04,18.50
2010,05,03,09,05,16.80
2010,05,03,09,06,13.40
2010,05,03,09,07,14.10
2010,05,03,09,08,19.60
2010,05,03,09,09,12.20
2010,05,03,09,10,12.90
2010,05,03,09,11,12.00
2010,05,03,09,12,11.70
2010,05,03,09,13,6.40
2010,05,03,09,14,16.50
2010,05,03,09,15,13.40
2010,05,03,09,16,10.00
2010,05,03,09,17,6.90
2010,05,03,09,18,16.70
2010,05,03,09,19,12.90
2010,05,03,09,20,23.00
2010,05,03,09,21,15.50
2010,05,03,09,22,11.10
2010,05,03,09,23,10.50
2010,05,03,09,24,2.60
2010,05,03,09,25,15.20
2010,05,03,09,26,14.30
2010,05,03,09,27,11.10
2010,05,03,09,28,6.10
2010,05,03,09,29,3.60
2010,05,03,09,30,14.20
2010,05,03,09,31,13.30
2010,05,03,09,32,12.40
2010,05,03,09,33,13.90
2010,05,03,09,34,12.70
2010,05,03,09,35,8.10
2010,05,03,09,36,6.80
2010,05,03,09,37,18.80
2010,05,03,09,38,14.20
2010,05,03,09,39,13.00
2010,05,03,09,40,13.80
2010,05,03,09,41,13.20
2010,05,03,09,42,11.90
2010,05,03,09,43,10.40
2010,05,03,09,44,16.80
2010,05,03,09,45,19.80
2010,05,03,09,46,11.80
2010,05,03,09,47,8.30
2010,05,03,09,48,13.60
2010,05,03,09,49,7.40
2010,05,03,09,50,11.40
2010,05,03,09,51,11.50
2010,05,03,09,52,10.20
2010,05,03,09,53,9.70
2010,05,03,09,54,6.20
2010,05,03,09,55,5.80
2010,05,03,09,56,6.80
2010,05,03,09,57,3.20
2010,05,03,09,58,10.90
2010,05,03,09,59,10.70
2010,05,03,10,00,17.50
2010,05,03,10,01,10.60
2010,05,03,10,02,14.20
2010,05,03,10,03,9.80
2010,05,03,10,04,12.90
2010,05,03,10,05,12.70
2010,05,03,10,06,14.10
2010,05,03,10,07,11.40
2010,05,03,10,08,9.70
2010,05,03,10,09,11.30
2010,05,03,10,10,9.80
2010,05,03,10,11,17.40
2010,05,03,10,12,18.30
2010,05,03,10,13,21.60
2010,05,03,10,14,17.00
2010,05,03,10,15,19.20
2010,05,03,10,16,6.10
2010,05,03,10,17,8.40
2010,05,03,10,18,7.60
2010,05,03,10,19,11.30
2010,05,03,10,20,10.70
2010,05,03,10,21,6.10
2010,05,03,10,22,8.40
2010,05,03,10,23,9.40
2010,05,03,10,24,3.60
2010,05,03,10,25,5.60
2010,05,03,10,26,6.70
2010,05,03,10,27,10.70
2010,05,03,10,28,15.50
2010,05,03,10,29,10.80
2010,05,03,10,30,5.30
2010,05,03,10,31,3.90
2010,05,03,10,32,3.00
2010,05,03,10,33,3.70
2010,05,03,10,34,6.30
2010,05,03,10,35,9.00
2010,05,03,10,36,7.30
2010,05,03,10,37,5.40
2010,05,03,10,38,12.30
2010,05,03,10,39,15.40
2010,05,03,10,40,20.20
2010,05,03,10,41,20.20
2010,05,03,10,42,11.90
2010,05,03,10,43,9.70
2010,05,03,10,44,15.40
2010,05,03,10,45,6.70
2010,05,03,10,46,13.00
2010,05,03,10,47,15.20
2010,05,03,10,48,14.80
2010,05,03,10,49,13.80
2010,05,03,10,50,5.80
2010,05,03,10,51,7.00
2010,05,03,10,52,10.40
2010,05,03,10,53,3.70
2010,05,03,10,54,13.30
2010,05,03,10,55,17.20
2010,05,03,10,56,9.40
2010,05,03,10,57,12.90
2010,05,03,10,58,3.20
2010,05,03,10,59,5.50
2010,05,03,11,00,19.20
2010,05,03,11,01,22.00
2010,05,03,11,02,18.10
2010,05,03,11,03,16.60
2010,05,03,11,04,14.10
2010,05,03,11,05,12.20
2010,05,03,11,06,14.90
2010,05,03,11,07,6.70
2010,05,03,11,08,18.00
2010,05,03,11,09,15.20
2010,05,03,11,10,12.20
2010,05,03,11,11,17.80
2010,05,03,11,12,6.00
2010,05,03,11,13,9.70
2010,05,03,11,14,15.20
2010,05,03,11,15,12.00
2010,05,03,11,16,11.40
2010,05,03,11,17,12.00
2010,05,03,11,18,5.40
2010,05,03,11,19,13.10
2010,05,03,11,20,17.90
2010,05,03,11,21,15.70
2010,05,03,11,22,12.00
2010,05,03,11,23,10.90
2010,05,03,11,24,9.30
2010,05,03,11,25,16.90
2010,05,03,11,26,8.10
2010,05,03,11,27,11.40
2010,05,03,11,28,9.70
2010,05,03,11,29,13.90
2010,05,03,11,30,12.40
2010,05,03,11,31,11.10
2010,05,03,11,32,16.40
2010,05,03,11,33,12.70
2010,05,03,11,34,11.30
2010,05,03,11,35,11.30
2010,05,03,11,36,10.90
2010,05,03,11,37,11.10
2010,05,03,11,38,6.20
2010,05,03,11,39,4.30
2010,05,03,11,40,1.70
2010,05,03,11,41,7.80
2010,05,03,11,42,6.80
2010,05,03,11,43,10.30
2010,05,03,11,44,5.40
2010,05,03,11,45,15.20
2010,05,03,11,46,11.70
2010,05,03,11,47,10.30
2010,05,03,11,48,5.80
2010,05,03,11,49,4.50
2010,05,03,11,50,11.70
2010,05,03,11,51,7.20
2010,05,03,11,52,12.30
2010,05,03,11,53,9.20
2010,05,03,11,54,11.50
2010,05,03,11,55,7.50
2010,05,03,11,56,9.00
2010,05,03,11,57,7.10
2010,05,03,11,58,3.10
2010,05,03,11,59,5.50
2010,05,03,12,00,8.00
2010,05,03,12,01,6.00
2010,05,03,12,02,4.80
2010,05,03,12,03,4.90
2010,05,03,12,04,6.70
2010,05,03,12,05,8.10
2010,05,03,12,06,8.30
2010,05,03,12,07,11.40
2010,05,03,12,08,7.80
2010,05,03,12,09,2.40
2010,05,03,12,10,8.20
2010,05,03,12,11,5.00
2010,05,03,12,12,5.30
2010,05,03,12,13,3.70
2010,05,03,12,14,1.80
2010,05,03,12,15,4.30
2010,05,03,12,16,3.50
2010,05,03,12,17,3.00
2010,05,03,12,18,3.70
2010,05,03,12,19,0.80
2010,05,03,12,20,1.40
2010,05,03,12,21,1.80
2010,05,03,12,22,1.50
2010,05,03,12,23,4.60
2010,05,03,12,24,2.90
2010,05,03,12,25,4.60
2010,05,03,12,26,3.70
2010,05,03,12,27,1.40
2010,05,03,12,28,0.90
2010,05,03,12,29,2.30
2010,05,03,12,30,4.70
2010,05,03,12,31,1.10
2010,05,03,12,32,2.20
2010,05,03,12,33,3.40
2010,05,03,12,34,3.60
2010,05,03,12,35,3.90
2010,05,03,12,36,0.90
2010,05,03,12,37,6.90
2010,05,03,12,38,3.50
2010,05,03,12,39,4.80
2010,05,03,12,40,2.70
2010,05,03,12,41,2.80
2010,05,03,12,42,3.00
2010,05,03,12,43,3.80
2010,05,03,12,44,1.20
2010,05,03,12,45,3.70
2010,05,03,12,46,2.70
2010,05,03,12,47,0.40
2010,05,03,12,48,0.60
2010,05,03,12,49,2.10
2010,05,03,12,50,1.30
2010,05,03,12,51,2.00
2010,05,03,12,52,1.30
2010,05,03,12,53,2.50
2010,05,03,12,54,0.90
2010,05,03,12,55,0.60
2010,05,03,12,56,2.70
2010,05,03,12,57,6.10
2010,05,03,12,58,0.70
2010,05,03,12,59,4.10
2010,05,03,13,00,1.60
2010,05,03,13,01,4.20
2010,05,03,13,02,0.60
2010,05,03,13,03,5.30
2010,05,03,13,04,1.20
2010,05,03,13,05,1.80
2010,05,03,13,06,2.30
2010,05,03,13,07,1.40
2010,05,03,13,08,2.50
2010,05,03,13,09,4.10
2010,05,03,13,10,0.80
2010,05,03,13,11,3.50
2010,05,03,13,12,3.20
2010,05,03,13,13,0.80
2010,05,03,13,14,4.30
2010,05,03,13,15,2.50
2010,05,03,13,16,0.20
2010,05,03,13,17,0.10
2010,05,03,13,18,1.40
2010,05,03,13,19,3.90
2010,05,03,13,20,0.80
2010,05,03,13,21,4.70
2010,05,03,13,22,2.40
2010,05,03,13,23,6.40
2010,05,03,13,24,5.40
2010,05,03,13,25,2.90
2010,05,03,13,26,5.60
2010,05,03,13,27,5.90
2010,05,03,13,28,4.00
2010,05,03,13,29,6.30
2010,05,03,13,30,2.70
2010,05,03,13,31,1.10
2010,05,03,13,32,1.80
2010,05,03,13,33,3.00
2010,05,03,13,34,5.60
2010,05,03,13,35,2.50
2010,05,03,13,36,2.20
2010,05,03,13,37,1.70
2010,05,03,13,38,1.90
2010,05,03,13,39,3.80
2010,05,03,13,40,1.00
2010,05,03,13,41,5.20
2010,05,03,13,42,6.80
2010,05,03,13,43,3.70
2010,05,03,13,44,5.90
2010,05,03,13,45,9.20
2010,05,03,13,46,7.20
2010,05,03,13,47,3.20
2010,05,03,13,48,4.80
2010,05,03,13,49,2.30
2010,05,03,13,50,2.90
2010,05,03,13,51,1.70
2010,05,03,13,52,2.80
2010,05,03,13,53,1.20
2010,05,03,13,54,3.40
2010,05,03,13,55,2.20
2010,05,03,13,56,2.20
2010,05,03,13,57,2.00
2010,05,03,13,58,4.50
2010,05,03,13,59,5.40
2010,05,03,14,00,4.10
2010,05,03,14,01,3.80
2010,05,03,14,02,5.00
2010,05,03,14,03,4.70
2010,05,03,14,04,3.00
2010,05,03,14,05,1.90
2010,05,03,14,06,3.50
2010,05,03,14,07,4.60
2010,05,03,14,08,2.40
2010,05,03,14,09,2.90
2010,05,03,14,10,1.10
2010,05,03,14,11,4.10
2010,05,03,14,12,3.00
2010,05,03,14,13,5.20
2010,05,03,14,14,2.90
2010,05,03,14,15,3.90
2010,05,03,14,16,3.10
2010,05,03,14,17,2.70
2010,05,03,14,18,0.90
2010,05,03,14,19,1.70
2010,05,03,14,20,3.40
2010,05,03,14,21,3.60
2010,05,03,14,22,7.00
2010,05,03,14,23,4.40
2010,05,03,14,24,6.40
2010,05,03,14,25,2.80
2010,05,03,14,26,4.30
2010,05,03,14,27,3.00
2010,05,03,14,28,5.10
2010,05,03,14,29,2.50
2010,05,03,14,30,3.40
2010,05,03,14,31,6.60
2010,05,03,14,32,3.50
2010,05,03,14,33,1.40
2010,05,03,14,34,4.80
2010,05,03,14,35,2.00
2010,05,03,14,36,6.00
2010,05,03,14,37,3.20
2010,05,03,14,38,5.20
2010,05,03,14,39,3.20
2010,05,03,14,40,4.50
2010,05,03,14,41,6.60
2010,05,03,14,42,5.30
2010,05,03,14,43,6.30
2010,05,03,14,44,2.90
2010,05,03,14,45,6.20
2010,05,03,14,46,4.30
2010,05,03,14,47,3.80
2010,05,03,14,48,6.20
2010,05,03,14,49,3.60
2010,05,03,14,50,3.50
2010,05,03,14,51,0.90
2010,05,03,14,52,3.30
2010,05,03,14,53,2.10
2010,05,03,14,54,2.30
2010,05,03,14,55,0.80
2010,05,03,14,56,5.30
2010,05,03,14,57,9.70
2010,05,03,14,58,4.70
2010,05,03,14,59,1.80
2010,05,03,15,00,0.80
2010,05,03,15,01,3.80
2010,05,03,15,02,3.60
2010,05,03,15,03,1.50
2010,05,03,15,04,2.90
2010,05,03,15,05,0.90
2010,05,03,15,06,1.10
2010,05,03,15,07,1.90
2010,05,03,15,08,3.50
2010,05,03,15,09,5.50
2010,05,03,15,10,5.30
2010,05,03,15,11,2.50
2010,05,03,15,12,3.10
2010,05,03,15,13,3.90
2010,05,03,15,14,1.40
2010,05,03,15,15,0.40
2010,05,03,15,16,0.50
2010,05,03,15,17,3.60
2010,05,03,15,18,0.80
2010,05,03,15,19,0.20
2010,05,03,15,20,0.00
2010,05,03,15,21,0.00
2010,05,03,15,22,0.00
2010,05,03,15,23,0.30
2010,05,03,15,24,0.70
2010,05,03,15,25,1.60
2010,05,03,15,26,0.30
2010,05,03,15,27,0.20
2010,05,03,15,28,0.00
2010,05,03,15,29,0.10
2010,05,03,15,30,0.00
2010,05,03,15,31,0.30
2010,05,03,15,32,0.00
2010,05,03,15,33,0.00
2010,05,03,15,34,0.30
2010,05,03,15,35,0.00
2010,05,03,15,36,0.00
2010,05,03,15,37,0.00
2010,05,03,15,38,0.90
2010,05,03,15,39,0.00
2010,05,03,15,40,0.30
2010,05,03,15,41,0.30
2010,05,03,15,42,0.30
2010,05,03,15,43,0.60
2010,05,03,15,44,0.10
2010,05,03,15,45,0.80
2010,05,03,15,46,2.40
2010,05,03,15,47,2.50
2010,05,03,15,48,3.90
2010,05,03,15,49,4.10
2010,05,03,15,50,3.00
2010,05,03,15,51,0.70
2010,05,03,15,52,5.80
2010,05,03,15,53,12.20
2010,05,03,15,54,11.10
2010,05,03,15,55,8.60
2010,05,03,15,56,9.30
2010,05,03,15,57,2.70
2010,05,03,15,58,4.30
2010,05,03,15,59,8.60
2010,05,03,16,00,5.10
2010,05,03,16,01,5.00
2010,05,03,16,02,8.20
2010,05,03,16,03,6.00
2010,05,03,16,04,4.10
2010,05,03,16,05,4.10
2010,05,03,16,06,8.00
2010,05,03,16,07,6.10
2010,05,03,16,08,1.80
2010,05,03,16,09,1.60
2010,05,03,16,10,2.30
2010,05,03,16,11,1.20
2010,05,03,16,12,2.80
2010,05,03,16,13,2.50
2010,05,03,16,14,3.00
2010,05,03,16,15,3.40
2010,05,03,16,16,2.00
2010,05,03,16,17,2.90
2010,05,03,16,18,0.30
2010,05,03,16,19,3.60
2010,05,03,16,20,3.60
2010,05,03,16,21,4.10
2010,05,03,16,22,8.60
2010,05,03,16,23,6.80
2010,05,03,16,24,3.70
2010,05,03,16,25,5.10
2010,05,03,16,26,14.80
2010,05,03,16,27,11.90
2010,05,03,16,28,9.60
2010,05,03,16,29,6.00
2010,05,03,16,30,1.90
2010,05,03,16,31,0.20
2010,05,03,16,32,0.70
2010,05,03,16,33,5.00
2010,05,03,16,34,6.40
2010,05,03,16,35,3.40
2010,05,03,16,36,2.30
2010,05,03,16,37,5.10
2010,05,03,16,38,9.80
2010,05,03,16,39,3.10
2010,05,03,16,40,2.20
2010,05,03,16,41,0.40
2010,05,03,16,42,0.30
2010,05,03,16,43,4.40
2010,05,03,16,44,3.70
2010,05,03,16,45,3.90
2010,05,03,16,46,6.00
2010,05,03,16,47,3.70
2010,05,03,16,48,3.70
2010,05,03,16,49,2.10
2010,05,03,16,50,1.20
2010,05,03,16,51,2.10
2010,05,03,16,52,1.90
2010,05,03,16,53,2.80
2010,05,03,16,54,5.70
2010,05,03,16,55,5.10
2010,05,03,16,56,4.10
2010,05,03,16,57,2.20
2010,05,03,16,58,0.00
2010,05,03,16,59,4.00
2010,05,03,17,00,1.40
2010,05,03,17,01,0.60
2010,05,03,17,02,1.40
2010,05,03,17,03,0.50
2010,05,03,17,04,0.30
2010,05,03,17,05,1.70
2010,05,03,17,06,1.80
2010,05,03,17,07,0.00
2010,05,03,17,08,0.00
2010,05,03,17,09,0.50
2010,05,03,17,10,1.30
2010,05,03,17,11,1.20
2010,05,03,17,12,2.90
2010,05,03,17,13,1.80
2010,05,03,17,14,2.60
2010,05,03,17,15,0.90
2010,05,03,17,16,1.20
2010,05,03,17,17,3.70
2010,05,03,17,18,0.50
2010,05,03,17,19,1.20
2010,05,03,17,20,3.10
2010,05,03,17,21,3.00
2010,05,03,17,22,3.60
2010,05,03,17,23,5.80
2010,05,03,17,24,2.70
2010,05,03,17,25,0.30
2010,05,03,17,26,4.00
2010,05,03,17,27,5.60
2010,05,03,17,28,3.50
2010,05,03,17,29,7.20
2010,05,03,17,30,2.40
2010,05,03,17,31,6.40
2010,05,03,17,32,4.40
2010,05,03,17,33,3.50
2010,05,03,17,34,4.40
2010,05,03,17,35,1.20
2010,05,03,17,36,2.00
2010,05,03,17,37,1.40
2010,05,03,17,38,4.40
2010,05,03,17,39,1.60
2010,05,03,17,40,2.80
2010,05,03,17,41,1.90
2010,05,03,17,42,1.00
2010,05,03,17,43,3.30
2010,05,03,17,44,2.00
2010,05,03,17,45,3.40
2010,05,03,17,46,5.10
2010,05,03,17,47,1.80
2010,05,03,17,48,1.90
2010,05,03,17,49,4.10
2010,05,03,17,50,3.10
2010,05,03,17,51,0.50
2010,05,03,17,52,1.50
2010,05,03,17,53,4.80
2010,05,03,17,54,3.60
2010,05,03,17,55,4.60
2010,05,03,17,56,10.80